| time (UTC) | temp C | wind direction | speed KPH | gust KPH | rain 1hr cm | rain 24hr cm | rain mn cm | humidity % | barometer mb |
| 20260508053701 | 11 | 0.0 | 0.0 | 0.00 | 0.00 | 0.00 | 44 | 1025.6 | |
| 20260508052104 | 12 | 0.0 | 0.0 | 0.00 | 0.00 | 0.00 | 42 | 1025.1 | |
| 20260508050506 | 11 | 0.0 | 0.0 | 0.00 | 0.00 | 0.00 | 39 | 1023.9 | |
| 20260508044907 | 11 | 0.0 | 0.0 | 0.00 | 0.00 | 0.00 | 42 | 1025.5 | |
| 20260508043309 | 11 | 0.0 | 0.0 | 0.00 | 0.00 | 0.00 | 41 | 1027.8 | |
| 20260508041711 | 11 | 0.0 | 0.0 | 0.00 | 0.00 | 0.00 | 39 | 1025.1 | |
| 20260508040113 | 12 | 0.0 | 0.0 | 0.00 | 0.00 | 0.00 | 39 | 1024.0 | |
| 20260508034515 | 11 | 0.0 | 0.0 | 0.00 | 0.00 | 0.00 | 37 | 1022.3 | |
| 20260508032917 | 11 | 0.0 | 0.0 | 0.00 | 0.00 | 0.00 | 37 | 1022.1 | |
| 20260508031319 | 11 | 0.0 | 0.0 | 0.00 | 0.00 | 0.00 | 33 | 1021.9 | |
| 20260508025721 | 12 | 0.0 | 0.0 | 0.00 | 0.00 | 0.00 | 25 | 1022.8 | |
| 20260508024124 | 12 | 0.0 | 0.0 | 0.00 | 0.00 | 0.00 | 28 | 1023.4 | |
| 20260508022525 | 12 | 0.0 | 0.0 | 0.00 | 0.00 | 0.00 | 28 | 1023.4 | |
| 20260508020927 | 12 | 0.0 | 0.0 | 0.00 | 0.00 | 0.00 | 28 | 1023.4 | |
| 20260508015330 | 12 | 0.0 | 0.0 | 0.00 | 0.00 | 0.00 | 28 | 1023.4 | |
| 20260508013732 | 12 | 0.0 | 0.0 | 0.00 | 0.00 | 0.00 | 31 | 1024.1 | |
| 20260508012134 | 12 | 0.0 | 0.0 | 0.00 | 0.00 | 0.00 | 29 | 1025.3 | |
| 20260508010536 | 12 | 0.0 | 0.0 | 0.00 | 0.00 | 0.00 | 38 | 1024.1 | |
| 20260508004937 | 12 | 0.0 | 0.0 | 0.00 | 0.00 | 0.00 | 38 | 1022.7 | |
| 20260508003339 | 13 | 0.0 | 0.0 | 0.00 | 0.00 | 0.00 | 41 | 1019.8 | |
| 20260508001741 | 13 | 0.0 | 0.0 | 0.00 | 0.00 | 0.00 | 57 | 1018.6 | |
| 20260508000143 | 16 | 0.0 | 0.0 | 0.00 | 0.00 | 0.00 | 71 | 1022.1 | |
| 20260507234545 | 17 | 0.0 | 0.0 | 0.00 | 0.00 | 0.00 | 73 | 1022.7 | |
| 20260507232948 | 17 | 0.0 | 0.0 | 0.00 | 0.00 | 0.00 | 73 | 1022.9 | |
| 20260507231349 | 17 | 0.0 | 0.0 | 0.00 | 0.00 | 0.00 | 73 | 1023.4 | |
| 20260507225752 | 17 | 0.0 | 0.0 | 0.00 | 0.00 | 0.00 | 69 | 1024.4 | |
| 20260507224154 | 16 | 0.0 | 0.0 | 0.00 | 0.00 | 0.00 | 63 | 1024.1 | |
| 20260507222555 | 15 | 0.0 | 0.0 | 0.00 | 0.00 | 0.00 | 55 | 1022.6 | |
| 20260507220957 | 15 | 0.0 | 0.0 | 0.00 | 0.00 | 0.00 | 53 | 1021.6 | |
| 20260507215400 | 15 | 0.0 | 0.0 | 0.00 | 0.00 | 0.00 | 49 | 1020.3 | |
| 20260507213801 | 15 | 0.0 | 0.0 | 0.00 | 0.00 | 0.00 | 52 | 1020.7 | |
| 20260507212203 | 13 | 0.0 | 0.0 | 0.00 | 0.00 | 0.00 | 49 | 1018.8 | |
| 20260507210604 | 14 | 0.0 | 0.0 | 0.00 | 0.00 | 0.00 | 50 | 1018.3 | |
| 20260507205007 | 14 | 0.0 | 0.0 | 0.00 | 0.00 | 0.00 | 48 | 1017.2 | |
| 20260507203409 | 15 | 0.0 | 0.0 | 0.00 | 0.00 | 0.00 | 52 | 1017.4 | |
| 20260507201811 | 15 | 0.0 | 0.0 | 0.00 | 0.00 | 0.00 | 53 | 1017.7 | |
| 20260507200214 | 15 | 0.0 | 0.0 | 0.00 | 0.00 | 0.00 | 49 | 1016.3 | |
| 20260507194615 | 13 | 0.0 | 0.0 | 0.00 | 0.00 | 0.00 | 45 | 1013.9 | |
| 20260507193016 | 13 | 0.0 | 0.0 | 0.00 | 0.00 | 0.00 | 43 | 1012.7 | |
| 20260507191418 | 14 | 0.0 | 0.0 | 0.00 | 0.00 | 0.00 | 40 | 1010.8 | |
| 20260507185821 | 13 | 0.0 | 0.0 | 0.00 | 0.00 | 0.00 | 37 | 1009.9 | |
| 20260507184222 | 13 | 0.0 | 0.0 | 0.00 | 0.00 | 0.00 | 47 | 1010.9 | |
| 20260507182625 | 14 | 0.0 | 0.0 | 0.00 | 0.00 | 0.00 | 73 | 1012.1 | |
| 20260507181027 | 17 | 0.0 | 0.0 | 0.00 | 0.00 | 0.00 | 75 | 1011.5 | |
| 20260507175429 | 17 | 0.0 | 0.0 | 0.00 | 0.00 | 0.00 | 77 | 1011.2 | |
| 20260507173831 | 16 | 0.0 | 0.0 | 0.00 | 0.00 | 0.00 | 78 | 1011.2 | |
| 20260507172233 | 17 | 0.0 | 0.0 | 0.00 | 0.00 | 0.00 | 77 | 1010.1 | |
| 20260507170635 | 17 | 0.0 | 0.0 | 0.00 | 0.00 | 0.00 | 74 | 1010.5 | |
| 20260507165037 | 18 | 0.0 | 0.0 | 0.00 | 0.00 | 0.00 | 67 | 1010.5 | |
| 20260507163439 | 19 | 0.0 | 0.0 | 0.00 | 0.00 | 0.00 | 66 | 1010.1 | |
| 20260507161841 | 20 | 0.0 | 0.0 | 0.00 | 0.00 | 0.00 | 66 | 1010.1 | |
| 20260507160245 | 20 | 0.0 | 0.0 | 0.00 | 0.00 | 0.00 | 63 | 1010.3 | |
| 20260507154645 | 20 | 0.0 | 0.0 | 0.00 | 0.00 | 0.00 | 64 | 1010.3 | |
| 20260507153048 | 21 | 0.0 | 0.0 | 0.00 | 0.00 | 0.00 | 63 | 1010.2 | |
| 20260507151450 | 21 | 0.0 | 0.0 | 0.00 | 0.00 | 0.00 | 63 | 1010.0 | |
| 20260507145851 | 20 | 0.0 | 0.0 | 0.00 | 0.00 | 0.00 | 63 | 1010.2 | |
| 20260507144253 | 21 | 0.0 | 0.0 | 0.00 | 0.00 | 0.00 | 59 | 1010.8 | |
| 20260507142655 | 20 | 0.0 | 0.0 | 0.00 | 0.00 | 0.00 | 58 | 1011.4 | |
| 20260507141057 | 21 | 0.0 | 0.0 | 0.00 | 0.00 | 0.00 | 56 | 1011.1 | |
| 20260507135459 | 21 | 0.0 | 0.0 | 0.00 | 0.00 | 0.00 | 58 | 1011.1 | |
| 20260507133901 | 20 | 0.0 | 0.0 | 0.00 | 0.00 | 0.00 | 57 | 1011.9 | |
| 20260507132307 | 20 | 0.0 | 0.0 | 0.00 | 0.00 | 0.00 | 58 | 1011.6 | |
| 20260507130705 | 20 | 0.0 | 0.0 | 0.00 | 0.00 | 0.00 | 58 | 1011.9 | |
| 20260507125107 | 22 | 0.0 | 0.0 | 0.00 | 0.00 | 0.00 | 54 | 1011.3 | |
| 20260507123509 | 21 | 0.0 | 0.0 | 0.00 | 0.00 | 0.00 | 56 | 1011.9 | |
| 20260507121911 | 21 | 0.0 | 0.0 | 0.00 | 0.00 | 0.00 | 57 | 1011.8 | |
| 20260507120313 | 21 | 0.0 | 0.0 | 0.00 | 0.00 | 0.00 | 54 | 1011.7 | |
| 20260507114716 | 21 | 0.0 | 0.0 | 0.00 | 0.00 | 0.00 | 56 | 1011.9 | |
| 20260507113117 | 23 | 0.0 | 0.0 | 0.00 | 0.00 | 0.00 | 53 | 1011.3 | |
| 20260507111519 | 21 | 0.0 | 0.0 | 0.00 | 0.00 | 0.00 | 59 | 1011.8 | |
| 20260507105921 | 21 | 0.0 | 0.0 | 0.00 | 0.00 | 0.00 | 60 | 1011.7 | |
| 20260507104323 | 21 | 0.0 | 0.0 | 0.00 | 0.00 | 0.00 | 59 | 1011.3 | |
| 20260507102725 | 20 | 0.0 | 0.0 | 0.00 | 0.00 | 0.00 | 63 | 1010.9 | |
| 20260507101127 | 20 | 0.0 | 0.0 | 0.00 | 0.00 | 0.00 | 62 | 1010.6 | |
| 20260507095529 | 19 | 0.0 | 0.0 | 0.00 | 0.00 | 0.00 | 66 | 1010.6 | |
| 20260507093931 | 19 | 0.0 | 0.0 | 0.00 | 0.00 | 0.00 | 66 | 1009.7 | |
| 20260507092333 | 18 | 0.0 | 0.0 | 0.00 | 0.00 | 0.00 | 68 | 1009.7 | |
| 20260507090736 | 18 | 0.0 | 0.0 | 0.00 | 0.00 | 0.00 | 70 | 1009.0 | |
| 20260507085137 | 18 | 0.0 | 0.0 | 0.00 | 0.00 | 0.00 | 69 | 1008.7 | |
| 20260507083539 | 18 | 0.0 | 0.0 | 0.00 | 0.00 | 0.00 | 70 | 1008.4 | |
| 20260507081941 | 18 | 0.0 | 0.0 | 0.00 | 0.00 | 0.00 | 72 | 1007.9 | |
| 20260507080343 | 18 | 0.0 | 0.0 | 0.00 | 0.00 | 0.00 | 73 | 1008.0 | |
| 20260507074745 | 17 | 0.0 | 0.0 | 0.00 | 0.00 | 0.00 | 74 | 1007.8 | |
| 20260507073148 | 17 | 0.0 | 0.0 | 0.00 | 0.00 | 0.00 | 75 | 1007.5 | |
| 20260507071549 | 17 | 0.0 | 0.0 | 0.00 | 0.00 | 0.00 | 75 | 1006.9 | |
| 20260507065952 | 17 | 0.0 | 0.0 | 0.00 | 0.00 | 0.00 | 74 | 1006.9 | |
| 20260507064353 | 17 | 0.0 | 0.0 | 0.00 | 0.00 | 0.00 | 76 | 1007.0 | |
| 20260507062755 | 16 | 0.0 | 0.0 | 0.00 | 0.00 | 0.00 | 76 | 1007.2 | |
| 20260507061157 | 16 | 0.0 | 0.0 | 0.00 | 0.00 | 0.00 | 77 | 1006.9 | |
| 20260507055559 | 16 | 0.0 | 0.0 | 0.00 | 0.00 | 0.00 | 76 | 1006.6 |